weather.gov     
National Weather Service

Terminal Aerodrome Forecast
NWS Homepage
This page is being discontinued on March 12, 2014.
The same data is available at this site. Please update your bookmarks.
Thank you, and we apologize for the inconvenience.
Please send an email to SR-SRH.Webmaster@noaa.gov with any concerns.


Current Version
Previous Version:    01  02  03  04  05  06  07  08  09  10  11  12  13  14  
[Printable]
863
FTUS41 KCAR 281200 AAA
TAFCAR
TAF AMD
KCAR 281257Z 2813/2912 16006KT P6SM BKN005
     FM281400 16006KT P6SM BKN010
     FM281800 14007KT P6SM -SHRA OVC015
     FM290300 13010KT 3SM -SHRA BR OVC008
     FM290500 14010KT 3SM -SHRA BR BKN005=


U.S. Dept. of Commerce
NOAA National Weather Service
1325 East West Highway
Silver Spring, MD 20910
E-mail: w-nws.webmaster@noaa.gov
Page last modified: May 16, 2007
NATIONAL WEATHER SERVICE: for Safety, for Work, for Fun - FOR LIFE